owner,sensor,date,latitude,longitude,air_temperature,qcFlag 
DISL,ioos:station:DISL:DISL:1,2017-01-01T06:30:00Z,30.2513,-88.0778,19.37,1111122 
DISL,ioos:station:DISL:DISL:1,2017-01-01T07:00:00Z,30.2513,-88.0778,19.27,1111122 
DISL,ioos:station:DISL:DISL:1,2017-01-01T07:30:00Z,30.2513,-88.0778,19.13,1111122 
DISL,ioos:station:DISL:DISL:1,2017-01-01T08:00:00Z,30.2513,-88.0778,19.2,1111122 
DISL,ioos:station:DISL:DISL:1,2017-01-01T08:30:00Z,30.2513,-88.0778,19.48,1111122 
DISL,ioos:station:DISL:DISL:1,2017-01-01T09:00:00Z,30.2513,-88.0778,19.58,1111122 
DISL,ioos:station:DISL:DISL:1,2017-01-01T09:30:00Z,30.2513,-88.0778,19.2,1111122 
DISL,ioos:station:DISL:DISL:1,2017-01-01T10:00:00Z,30.2513,-88.0778,19.0,1111122 
DISL,ioos:station:DISL:DISL:1,2017-01-01T10:30:00Z,30.2513,-88.0778,18.79,1111122 
DISL,ioos:station:DISL:DISL:1,2017-01-01T11:00:00Z,30.2513,-88.0778,18.24,1111122 
DISL,ioos:station:DISL:DISL:1,2017-01-01T11:30:00Z,30.2513,-88.0778,18.03,1111122 
DISL,ioos:station:DISL:DISL:1,2017-01-01T12:00:00Z,30.2513,-88.0778,18.69,1111122 
DISL,ioos:station:DISL:DISL:1,2017-01-01T12:30:00Z,30.2513,-88.0778,18.38,1111122 
DISL,ioos:station:DISL:DISL:1,2017-01-01T13:00:00Z,30.2513,-88.0778,17.97,1111122 
DISL,ioos:station:DISL:DISL:1,2017-01-01T13:30:00Z,30.2513,-88.0778,17.52,1111122 
DISL,ioos:station:DISL:DISL:1,2017-01-01T14:00:00Z,30.2513,-88.0778,16.92,1111122 
DISL,ioos:station:DISL:DISL:1,2017-01-01T14:30:00Z,30.2513,-88.0778,16.96,1111122 
DISL,ioos:station:DISL:DISL:1,2017-01-01T15:00:00Z,30.2513,-88.0778,18.67,1111122 
DISL,ioos:station:DISL:DISL:1,2017-01-01T15:30:00Z,30.2513,-88.0778,19.13,1111122 
DISL,ioos:station:DISL:DISL:1,2017-01-01T16:00:00Z,30.2513,-88.0778,19.6,1111122 
DISL,ioos:station:DISL:DISL:1,2017-01-01T16:30:00Z,30.2513,-88.0778,20.07,1111122 
DISL,ioos:station:DISL:DISL:1,2017-01-01T17:00:00Z,30.2513,-88.0778,20.07,1111122 
DISL,ioos:station:DISL:DISL:1,2017-01-01T17:30:00Z,30.2513,-88.0778,20.67,1111122 
DISL,ioos:station:DISL:DISL:1,2017-01-01T18:00:00Z,30.2513,-88.0778,20.43,1111122 
DISL,ioos:station:DISL:DISL:1,2017-01-01T18:30:00Z,30.2513,-88.0778,20.7,1111122 
DISL,ioos:station:DISL:DISL:1,2017-01-01T19:00:00Z,30.2513,-88.0778,20.45,1111122 
DISL,ioos:station:DISL:DISL:1,2017-01-01T19:30:00Z,30.2513,-88.0778,22.02,1111122 
DISL,ioos:station:DISL:DISL:1,2017-01-01T20:00:00Z,30.2513,-88.0778,21.4,1111122 
DISL,ioos:station:DISL:DISL:1,2017-01-01T20:30:00Z,30.2513,-88.0778,21.13,1111122 
DISL,ioos:station:DISL:DISL:1,2017-01-01T21:00:00Z,30.2513,-88.0778,21.2,1111122 
DISL,ioos:station:DISL:DISL:1,2017-01-01T21:30:00Z,30.2513,-88.0778,20.51,1111122 
DISL,ioos:station:DISL:DISL:1,2017-01-01T22:00:00Z,30.2513,-88.0778,20.26,1111122 
DISL,ioos:station:DISL:DISL:1,2017-01-01T22:30:00Z,30.2513,-88.0778,20.2,1111122 
DISL,ioos:station:DISL:DISL:1,2017-01-01T23:00:00Z,30.2513,-88.0778,20.79,1111122 
DISL,ioos:station:DISL:DISL:1,2017-01-01T23:30:00Z,30.2513,-88.0778,20.11,1111122 
DISL,ioos:station:DISL:DISL:1,2017-01-02T00:00:00Z,30.2513,-88.0778,20.14,1111122 
DISL,ioos:station:DISL:DISL:1,2017-01-02T00:30:00Z,30.2513,-88.0778,20.04,1111122 
DISL,ioos:station:DISL:DISL:1,2017-01-02T01:00:00Z,30.2513,-88.0778,19.94,1111122 
DISL,ioos:station:DISL:DISL:1,2017-01-02T01:30:00Z,30.2513,-88.0778,20.07,1111122 
DISL,ioos:station:DISL:DISL:1,2017-01-02T02:00:00Z,30.2513,-88.0778,20.14,1111122 
DISL,ioos:station:DISL:DISL:1,2017-01-02T02:30:00Z,30.2513,-88.0778,19.8,1111122 
DISL,ioos:station:DISL:DISL:1,2017-01-02T03:00:00Z,30.2513,-88.0778,18.91,1111122 
DISL,ioos:station:DISL:DISL:1,2017-01-02T03:30:00Z,30.2513,-88.0778,18.72,1111122 
DISL,ioos:station:DISL:DISL:1,2017-01-02T04:00:00Z,30.2513,-88.0778,18.75,1111122 
DISL,ioos:station:DISL:DISL:1,2017-01-02T04:30:00Z,30.2513,-88.0778,18.14,1111122 
DISL,ioos:station:DISL:DISL:1,2017-01-02T05:00:00Z,30.2513,-88.0778,18.45,1111122 
DISL,ioos:station:DISL:DISL:1,2017-01-02T05:30:00Z,30.2513,-88.0778,18.0,1111122 
DISL,ioos:station:DISL:DISL:1,2017-01-02T06:30:00Z,30.2513,-88.0778,17.84,1111122 
DISL,ioos:station:DISL:DISL:1,2017-01-02T07:00:00Z,30.2513,-88.0778,17.78,1111122 
DISL,ioos:station:DISL:DISL:1,2017-01-02T07:30:00Z,30.2513,-88.0778,18.02,1111122 
DISL,ioos:station:DISL:DISL:1,2017-01-02T08:00:00Z,30.2513,-88.0778,17.91,1111122 
DISL,ioos:station:DISL:DISL:1,2017-01-02T08:30:00Z,30.2513,-88.0778,17.97,1111122 
DISL,ioos:station:DISL:DISL:1,2017-01-02T09:00:00Z,30.2513,-88.0778,17.63,1111122 
DISL,ioos:station:DISL:DISL:1,2017-01-02T09:30:00Z,30.2513,-88.0778,18.05,1111122 
DISL,ioos:station:DISL:DISL:1,2017-01-02T10:00:00Z,30.2513,-88.0778,18.33,1111122 
DISL,ioos:station:DISL:DISL:1,2017-01-02T10:30:00Z,30.2513,-88.0778,18.14,1111122 
DISL,ioos:station:DISL:DISL:1,2017-01-02T11:00:00Z,30.2513,-88.0778,18.17,1111122 
DISL,ioos:station:DISL:DISL:1,2017-01-02T11:30:00Z,30.2513,-88.0778,18.28,1111122 
DISL,ioos:station:DISL:DISL:1,2017-01-02T12:00:00Z,30.2513,-88.0778,18.58,1111122 
DISL,ioos:station:DISL:DISL:1,2017-01-02T12:30:00Z,30.2513,-88.0778,18.52,1111122 
DISL,ioos:station:DISL:DISL:1,2017-01-02T13:00:00Z,30.2513,-88.0778,18.89,1111122 
DISL,ioos:station:DISL:DISL:1,2017-01-02T13:30:00Z,30.2513,-88.0778,19.24,1111122 
DISL,ioos:station:DISL:DISL:1,2017-01-02T14:00:00Z,30.2513,-88.0778,19.41,1111122 
DISL,ioos:station:DISL:DISL:1,2017-01-02T14:30:00Z,30.2513,-88.0778,19.65,1111122 
DISL,ioos:station:DISL:DISL:1,2017-01-02T15:00:00Z,30.2513,-88.0778,19.74,1111122 
DISL,ioos:station:DISL:DISL:1,2017-01-02T15:30:00Z,30.2513,-88.0778,19.94,1111122 
DISL,ioos:station:DISL:DISL:1,2017-01-02T16:00:00Z,30.2513,-88.0778,19.87,1111122 
DISL,ioos:station:DISL:DISL:1,2017-01-02T16:30:00Z,30.2513,-88.0778,20.07,1111122 
DISL,ioos:station:DISL:DISL:1,2017-01-02T17:00:00Z,30.2513,-88.0778,20.28,1111122 
DISL,ioos:station:DISL:DISL:1,2017-01-02T17:30:00Z,30.2513,-88.0778,20.74,1111122 
DISL,ioos:station:DISL:DISL:1,2017-01-02T18:00:00Z,30.2513,-88.0778,21.08,1111122 
DISL,ioos:station:DISL:DISL:1,2017-01-02T18:30:00Z,30.2513,-88.0778,20.39,1111122 
DISL,ioos:station:DISL:DISL:1,2017-01-02T19:00:00Z,30.2513,-88.0778,20.4,1111122 
DISL,ioos:station:DISL:DISL:1,2017-01-02T19:30:00Z,30.2513,-88.0778,20.59,1111122 
DISL,ioos:station:DISL:DISL:1,2017-01-02T20:00:00Z,30.2513,-88.0778,20.62,1111122 
DISL,ioos:station:DISL:DISL:1,2017-01-02T20:30:00Z,30.2513,-88.0778,18.15,1111122 
DISL,ioos:station:DISL:DISL:1,2017-01-02T21:00:00Z,30.2513,-88.0778,18.72,1111122 
DISL,ioos:station:DISL:DISL:1,2017-01-02T21:30:00Z,30.2513,-88.0778,19.85,1111122 
DISL,ioos:station:DISL:DISL:1,2017-01-02T22:00:00Z,30.2513,-88.0778,19.68,1111122 
DISL,ioos:station:DISL:DISL:1,2017-01-02T22:30:00Z,30.2513,-88.0778,20.71,1111122 
DISL,ioos:station:DISL:DISL:1,2017-01-02T23:00:00Z,30.2513,-88.0778,21.55,1111122 
DISL,ioos:station:DISL:DISL:1,2017-01-02T23:30:00Z,30.2513,-88.0778,21.37,1111122 
DISL,ioos:station:DISL:DISL:1,2017-01-03T00:00:00Z,30.2513,-88.0778,17.88,1111122 
DISL,ioos:station:DISL:DISL:1,2017-01-03T00:30:00Z,30.2513,-88.0778,17.49,1111122 
DISL,ioos:station:DISL:DISL:1,2017-01-03T01:00:00Z,30.2513,-88.0778,17.45,1111122 
DISL,ioos:station:DISL:DISL:1,2017-01-03T01:30:00Z,30.2513,-88.0778,17.4,1111122 
DISL,ioos:station:DISL:DISL:1,2017-01-03T02:00:00Z,30.2513,-88.0778,17.95,1111122 
DISL,ioos:station:DISL:DISL:1,2017-01-03T02:30:00Z,30.2513,-88.0778,17.81,1111122 
DISL,ioos:station:DISL:DISL:1,2017-01-03T03:00:00Z,30.2513,-88.0778,20.31,1111122 
DISL,ioos:station:DISL:DISL:1,2017-01-03T03:30:00Z,30.2513,-88.0778,20.92,1111122 
DISL,ioos:station:DISL:DISL:1,2017-01-03T04:00:00Z,30.2513,-88.0778,20.25,1111122 
DISL,ioos:station:DISL:DISL:1,2017-01-03T04:30:00Z,30.2513,-88.0778,20.9,1111122 
DISL,ioos:station:DISL:DISL:1,2017-01-03T05:00:00Z,30.2513,-88.0778,20.28,1111122 
DISL,ioos:station:DISL:DISL:1,2017-01-03T05:30:00Z,30.2513,-88.0778,20.59,1111122 
DISL,ioos:station:DISL:DISL:1,2017-01-03T06:30:00Z,30.2513,-88.0778,20.28,1111122 
DISL,ioos:station:DISL:DISL:1,2017-01-03T07:00:00Z,30.2513,-88.0778,19.52,1111122 
DISL,ioos:station:DISL:DISL:1,2017-01-03T07:30:00Z,30.2513,-88.0778,20.55,1111122 
DISL,ioos:station:DISL:DISL:1,2017-01-03T08:00:00Z,30.2513,-88.0778,19.63,1111122 
DISL,ioos:station:DISL:DISL:1,2017-01-03T08:30:00Z,30.2513,-88.0778,18.78,1111122 
DISL,ioos:station:DISL:DISL:1,2017-01-03T09:00:00Z,30.2513,-88.0778,17.93,1111122 
DISL,ioos:station:DISL:DISL:1,2017-01-03T09:30:00Z,30.2513,-88.0778,17.62,1111122 
DISL,ioos:station:DISL:DISL:1,2017-01-03T10:00:00Z,30.2513,-88.0778,17.33,1111122 
DISL,ioos:station:DISL:DISL:1,2017-01-03T10:30:00Z,30.2513,-88.0778,16.96,1111122 
DISL,ioos:station:DISL:DISL:1,2017-01-03T11:00:00Z,30.2513,-88.0778,16.68,1111122 
DISL,ioos:station:DISL:DISL:1,2017-01-03T11:30:00Z,30.2513,-88.0778,16.48,1111122 
DISL,ioos:station:DISL:DISL:1,2017-01-03T12:00:00Z,30.2513,-88.0778,16.31,1111122 
DISL,ioos:station:DISL:DISL:1,2017-01-03T12:30:00Z,30.2513,-88.0778,16.22,1111122 
DISL,ioos:station:DISL:DISL:1,2017-01-03T13:00:00Z,30.2513,-88.0778,16.29,1111122 
DISL,ioos:station:DISL:DISL:1,2017-01-03T13:30:00Z,30.2513,-88.0778,16.26,1111122 
DISL,ioos:station:DISL:DISL:1,2017-01-03T14:00:00Z,30.2513,-88.0778,16.21,1111122 
DISL,ioos:station:DISL:DISL:1,2017-01-03T14:30:00Z,30.2513,-88.0778,16.79,1111122 
DISL,ioos:station:DISL:DISL:1,2017-01-03T15:00:00Z,30.2513,-88.0778,17.3,1111122 
DISL,ioos:station:DISL:DISL:1,2017-01-03T15:30:00Z,30.2513,-88.0778,17.49,1111122 
DISL,ioos:station:DISL:DISL:1,2017-01-03T16:00:00Z,30.2513,-88.0778,17.78,1111122 
DISL,ioos:station:DISL:DISL:1,2017-01-03T16:30:00Z,30.2513,-88.0778,18.01,1111122 
DISL,ioos:station:DISL:DISL:1,2017-01-03T17:00:00Z,30.2513,-88.0778,17.77,1111122 
DISL,ioos:station:DISL:DISL:1,2017-01-03T17:30:00Z,30.2513,-88.0778,18.53,1111122 
DISL,ioos:station:DISL:DISL:1,2017-01-03T18:00:00Z,30.2513,-88.0778,18.7,1111122 
DISL,ioos:station:DISL:DISL:1,2017-01-03T18:30:00Z,30.2513,-88.0778,18.48,1111122 
DISL,ioos:station:DISL:DISL:1,2017-01-03T19:00:00Z,30.2513,-88.0778,18.48,1111122 
DISL,ioos:station:DISL:DISL:1,2017-01-03T19:30:00Z,30.2513,-88.0778,18.28,1111122 
DISL,ioos:station:DISL:DISL:1,2017-01-03T20:00:00Z,30.2513,-88.0778,17.12,1111122 
DISL,ioos:station:DISL:DISL:1,2017-01-03T20:30:00Z,30.2513,-88.0778,15.99,1111122 
DISL,ioos:station:DISL:DISL:1,2017-01-03T21:00:00Z,30.2513,-88.0778,16.79,1111122 
DISL,ioos:station:DISL:DISL:1,2017-01-03T21:30:00Z,30.2513,-88.0778,16.18,1111122 
DISL,ioos:station:DISL:DISL:1,2017-01-03T22:00:00Z,30.2513,-88.0778,15.29,1111122 
DISL,ioos:station:DISL:DISL:1,2017-01-03T22:30:00Z,30.2513,-88.0778,15.03,1111122 
DISL,ioos:station:DISL:DISL:1,2017-01-03T23:00:00Z,30.2513,-88.0778,14.73,1111122 
DISL,ioos:station:DISL:DISL:1,2017-01-03T23:30:00Z,30.2513,-88.0778,14.64,1111122 
DISL,ioos:station:DISL:DISL:1,2017-01-04T00:00:00Z,30.2513,-88.0778,14.61,1111122 
DISL,ioos:station:DISL:DISL:1,2017-01-04T00:30:00Z,30.2513,-88.0778,14.71,1111122 
DISL,ioos:station:DISL:DISL:1,2017-01-04T01:00:00Z,30.2513,-88.0778,14.68,1111122 
DISL,ioos:station:DISL:DISL:1,2017-01-04T01:30:00Z,30.2513,-88.0778,15.13,1111122 
DISL,ioos:station:DISL:DISL:1,2017-01-04T02:00:00Z,30.2513,-88.0778,15.47,1111122 
DISL,ioos:station:DISL:DISL:1,2017-01-04T02:30:00Z,30.2513,-88.0778,15.54,1111122 
DISL,ioos:station:DISL:DISL:1,2017-01-04T03:00:00Z,30.2513,-88.0778,15.91,1111122 
DISL,ioos:station:DISL:DISL:1,2017-01-04T03:30:00Z,30.2513,-88.0778,16.53,1111122 
DISL,ioos:station:DISL:DISL:1,2017-01-04T04:00:00Z,30.2513,-88.0778,16.53,1111122 
DISL,ioos:station:DISL:DISL:1,2017-01-04T04:30:00Z,30.2513,-88.0778,16.98,1111122 
DISL,ioos:station:DISL:DISL:1,2017-01-04T05:00:00Z,30.2513,-88.0778,17.32,1111122 
DISL,ioos:station:DISL:DISL:1,2017-01-04T05:30:00Z,30.2513,-88.0778,17.51,1111122 
DISL,ioos:station:DISL:DISL:1,2017-01-04T06:30:00Z,30.2513,-88.0778,17.57,1111122 
DISL,ioos:station:DISL:DISL:1,2017-01-04T07:00:00Z,30.2513,-88.0778,17.54,1111122 
DISL,ioos:station:DISL:DISL:1,2017-01-04T07:30:00Z,30.2513,-88.0778,17.54,1111122 
DISL,ioos:station:DISL:DISL:1,2017-01-04T08:00:00Z,30.2513,-88.0778,17.47,1111122 
DISL,ioos:station:DISL:DISL:1,2017-01-04T08:30:00Z,30.2513,-88.0778,17.3,1111122 
DISL,ioos:station:DISL:DISL:1,2017-01-04T09:00:00Z,30.2513,-88.0778,17.1,1111122 
DISL,ioos:station:DISL:DISL:1,2017-01-04T09:30:00Z,30.2513,-88.0778,16.84,1111122 
DISL,ioos:station:DISL:DISL:1,2017-01-04T10:00:00Z,30.2513,-88.0778,17.18,1111122 
DISL,ioos:station:DISL:DISL:1,2017-01-04T10:30:00Z,30.2513,-88.0778,16.84,1111122 
DISL,ioos:station:DISL:DISL:1,2017-01-04T11:00:00Z,30.2513,-88.0778,15.67,1111122 
DISL,ioos:station:DISL:DISL:1,2017-01-04T11:30:00Z,30.2513,-88.0778,15.29,1111122 
DISL,ioos:station:DISL:DISL:1,2017-01-04T12:00:00Z,30.2513,-88.0778,13.89,1111122 
DISL,ioos:station:DISL:DISL:1,2017-01-04T12:30:00Z,30.2513,-88.0778,14.1,1111122 
DISL,ioos:station:DISL:DISL:1,2017-01-04T13:00:00Z,30.2513,-88.0778,14.55,1111122 
DISL,ioos:station:DISL:DISL:1,2017-01-04T13:30:00Z,30.2513,-88.0778,14.58,1111122 
DISL,ioos:station:DISL:DISL:1,2017-01-04T14:00:00Z,30.2513,-88.0778,15.03,1111122 
DISL,ioos:station:DISL:DISL:1,2017-01-04T14:30:00Z,30.2513,-88.0778,14.37,1111122 
DISL,ioos:station:DISL:DISL:1,2017-01-04T15:00:00Z,30.2513,-88.0778,14.57,1111122 
DISL,ioos:station:DISL:DISL:1,2017-01-04T15:30:00Z,30.2513,-88.0778,15.05,1111122 
DISL,ioos:station:DISL:DISL:1,2017-01-04T16:00:00Z,30.2513,-88.0778,15.1,1111122 
DISL,ioos:station:DISL:DISL:1,2017-01-04T16:30:00Z,30.2513,-88.0778,15.14,1111122 
DISL,ioos:station:DISL:DISL:1,2017-01-04T17:00:00Z,30.2513,-88.0778,15.14,1111122 
DISL,ioos:station:DISL:DISL:1,2017-01-04T17:30:00Z,30.2513,-88.0778,15.34,1111122 
DISL,ioos:station:DISL:DISL:1,2017-01-04T18:00:00Z,30.2513,-88.0778,15.31,1111122 
DISL,ioos:station:DISL:DISL:1,2017-01-04T18:30:00Z,30.2513,-88.0778,15.38,1111122 
DISL,ioos:station:DISL:DISL:1,2017-01-04T19:00:00Z,30.2513,-88.0778,15.41,1111122 
DISL,ioos:station:DISL:DISL:1,2017-01-04T19:30:00Z,30.2513,-88.0778,15.31,1111122 
DISL,ioos:station:DISL:DISL:1,2017-01-04T20:00:00Z,30.2513,-88.0778,15.22,1111122 
DISL,ioos:station:DISL:DISL:1,2017-01-04T20:30:00Z,30.2513,-88.0778,15.24,1111122 
DISL,ioos:station:DISL:DISL:1,2017-01-04T21:00:00Z,30.2513,-88.0778,15.58,1111122 
DISL,ioos:station:DISL:DISL:1,2017-01-04T21:30:00Z,30.2513,-88.0778,14.9,1111122 
DISL,ioos:station:DISL:DISL:1,2017-01-04T22:00:00Z,30.2513,-88.0778,14.76,1111122 
DISL,ioos:station:DISL:DISL:1,2017-01-04T22:30:00Z,30.2513,-88.0778,13.99,1111122 
DISL,ioos:station:DISL:DISL:1,2017-01-04T23:00:00Z,30.2513,-88.0778,13.55,1111122 
DISL,ioos:station:DISL:DISL:1,2017-01-04T23:30:00Z,30.2513,-88.0778,12.98,1111122 
DISL,ioos:station:DISL:DISL:1,2017-01-05T00:00:00Z,30.2513,-88.0778,12.53,1111122 
DISL,ioos:station:DISL:DISL:1,2017-01-05T00:30:00Z,30.2513,-88.0778,12.05,1111122 
DISL,ioos:station:DISL:DISL:1,2017-01-05T01:00:00Z,30.2513,-88.0778,11.79,1111122 
DISL,ioos:station:DISL:DISL:1,2017-01-05T01:30:00Z,30.2513,-88.0778,11.86,1111122 
DISL,ioos:station:DISL:DISL:1,2017-01-05T02:00:00Z,30.2513,-88.0778,11.66,1111122 
DISL,ioos:station:DISL:DISL:1,2017-01-05T02:30:00Z,30.2513,-88.0778,11.42,1111122 
DISL,ioos:station:DISL:DISL:1,2017-01-05T03:00:00Z,30.2513,-88.0778,11.28,1111122 
DISL,ioos:station:DISL:DISL:1,2017-01-05T03:30:00Z,30.2513,-88.0778,10.83,1111122 
DISL,ioos:station:DISL:DISL:1,2017-01-05T04:00:00Z,30.2513,-88.0778,10.6,1111122 
DISL,ioos:station:DISL:DISL:1,2017-01-05T04:30:00Z,30.2513,-88.0778,10.33,1111122 
DISL,ioos:station:DISL:DISL:1,2017-01-05T05:00:00Z,30.2513,-88.0778,10.16,1111122 
DISL,ioos:station:DISL:DISL:1,2017-01-05T05:30:00Z,30.2513,-88.0778,10.03,1111122 
DISL,ioos:station:DISL:DISL:1,2017-01-05T06:30:00Z,30.2513,-88.0778,10.03,1111122 
DISL,ioos:station:DISL:DISL:1,2017-01-05T07:00:00Z,30.2513,-88.0778,10.27,1111122 
DISL,ioos:station:DISL:DISL:1,2017-01-05T07:30:00Z,30.2513,-88.0778,10.44,1111122 
DISL,ioos:station:DISL:DISL:1,2017-01-05T08:00:00Z,30.2513,-88.0778,10.44,1111122 
DISL,ioos:station:DISL:DISL:1,2017-01-05T08:30:00Z,30.2513,-88.0778,10.44,1111122 
DISL,ioos:station:DISL:DISL:1,2017-01-05T09:00:00Z,30.2513,-88.0778,10.64,1111122 
DISL,ioos:station:DISL:DISL:1,2017-01-05T09:30:00Z,30.2513,-88.0778,10.64,1111122 
DISL,ioos:station:DISL:DISL:1,2017-01-05T10:00:00Z,30.2513,-88.0778,10.51,1111122 
DISL,ioos:station:DISL:DISL:1,2017-01-05T10:30:00Z,30.2513,-88.0778,10.47,1111122 
DISL,ioos:station:DISL:DISL:1,2017-01-05T11:00:00Z,30.2513,-88.0778,10.78,1111122 
DISL,ioos:station:DISL:DISL:1,2017-01-05T11:30:00Z,30.2513,-88.0778,10.75,1111122 
DISL,ioos:station:DISL:DISL:1,2017-01-05T12:00:00Z,30.2513,-88.0778,10.71,1111122 
DISL,ioos:station:DISL:DISL:1,2017-01-05T12:30:00Z,30.2513,-88.0778,10.75,1111122 
DISL,ioos:station:DISL:DISL:1,2017-01-05T13:00:00Z,30.2513,-88.0778,10.89,1111122 
DISL,ioos:station:DISL:DISL:1,2017-01-05T13:30:00Z,30.2513,-88.0778,11.4,1111122 
DISL,ioos:station:DISL:DISL:1,2017-01-05T14:00:00Z,30.2513,-88.0778,11.66,1111122 
DISL,ioos:station:DISL:DISL:1,2017-01-05T14:30:00Z,30.2513,-88.0778,12.07,1111122 
DISL,ioos:station:DISL:DISL:1,2017-01-05T15:00:00Z,30.2513,-88.0778,12.19,1111122 
DISL,ioos:station:DISL:DISL:1,2017-01-05T15:30:00Z,30.2513,-88.0778,12.11,1111122 
DISL,ioos:station:DISL:DISL:1,2017-01-05T16:00:00Z,30.2513,-88.0778,12.03,1111122 
DISL,ioos:station:DISL:DISL:1,2017-01-05T16:30:00Z,30.2513,-88.0778,12.09,1111122 
DISL,ioos:station:DISL:DISL:1,2017-01-05T17:00:00Z,30.2513,-88.0778,12.39,1111122 
DISL,ioos:station:DISL:DISL:1,2017-01-05T17:30:00Z,30.2513,-88.0778,12.63,1111122 
DISL,ioos:station:DISL:DISL:1,2017-01-05T18:00:00Z,30.2513,-88.0778,12.75,1111122 
DISL,ioos:station:DISL:DISL:1,2017-01-05T18:30:00Z,30.2513,-88.0778,13.2,1111122 
DISL,ioos:station:DISL:DISL:1,2017-01-05T19:00:00Z,30.2513,-88.0778,13.42,1111122 
DISL,ioos:station:DISL:DISL:1,2017-01-05T19:30:00Z,30.2513,-88.0778,13.8,1111122 
DISL,ioos:station:DISL:DISL:1,2017-01-05T20:00:00Z,30.2513,-88.0778,14.16,1111122 
DISL,ioos:station:DISL:DISL:1,2017-01-05T20:30:00Z,30.2513,-88.0778,14.62,1111122 
DISL,ioos:station:DISL:DISL:1,2017-01-05T21:00:00Z,30.2513,-88.0778,14.76,1111122 
DISL,ioos:station:DISL:DISL:1,2017-01-05T21:30:00Z,30.2513,-88.0778,14.93,1111122 
DISL,ioos:station:DISL:DISL:1,2017-01-05T22:00:00Z,30.2513,-88.0778,15.04,1111122 
DISL,ioos:station:DISL:DISL:1,2017-01-05T22:30:00Z,30.2513,-88.0778,15.26,1111122 
DISL,ioos:station:DISL:DISL:1,2017-01-05T23:00:00Z,30.2513,-88.0778,15.53,1111122 
DISL,ioos:station:DISL:DISL:1,2017-01-05T23:30:00Z,30.2513,-88.0778,15.74,1111122 
DISL,ioos:station:DISL:DISL:1,2017-01-06T00:00:00Z,30.2513,-88.0778,15.95,1111122 
DISL,ioos:station:DISL:DISL:1,2017-01-06T00:30:00Z,30.2513,-88.0778,16.19,1111122 
DISL,ioos:station:DISL:DISL:1,2017-01-06T01:00:00Z,30.2513,-88.0778,16.29,1111122 
DISL,ioos:station:DISL:DISL:1,2017-01-06T01:30:00Z,30.2513,-88.0778,16.5,1111122 
DISL,ioos:station:DISL:DISL:1,2017-01-06T02:00:00Z,30.2513,-88.0778,16.6,1111122 
DISL,ioos:station:DISL:DISL:1,2017-01-06T02:30:00Z,30.2513,-88.0778,16.7,1111122 
DISL,ioos:station:DISL:DISL:1,2017-01-06T03:00:00Z,30.2513,-88.0778,16.91,1111122 
DISL,ioos:station:DISL:DISL:1,2017-01-06T03:30:00Z,30.2513,-88.0778,16.91,1111122 
DISL,ioos:station:DISL:DISL:1,2017-01-06T04:00:00Z,30.2513,-88.0778,16.97,1111122 
DISL,ioos:station:DISL:DISL:1,2017-01-06T04:30:00Z,30.2513,-88.0778,17.1,1111122 
DISL,ioos:station:DISL:DISL:1,2017-01-06T05:00:00Z,30.2513,-88.0778,17.16,1111122 
DISL,ioos:station:DISL:DISL:1,2017-01-06T05:30:00Z,30.2513,-88.0778,17.13,1111122 
DISL,ioos:station:DISL:DISL:1,2017-01-06T06:30:00Z,30.2513,-88.0778,14.8,1111122 
DISL,ioos:station:DISL:DISL:1,2017-01-06T07:00:00Z,30.2513,-88.0778,13.95,1111122 
DISL,ioos:station:DISL:DISL:1,2017-01-06T07:30:00Z,30.2513,-88.0778,13.54,1111122 
DISL,ioos:station:DISL:DISL:1,2017-01-06T08:00:00Z,30.2513,-88.0778,13.55,1111122 
DISL,ioos:station:DISL:DISL:1,2017-01-06T08:30:00Z,30.2513,-88.0778,13.32,1111122 
DISL,ioos:station:DISL:DISL:1,2017-01-06T09:00:00Z,30.2513,-88.0778,13.15,1111122 
DISL,ioos:station:DISL:DISL:1,2017-01-06T09:30:00Z,30.2513,-88.0778,12.74,1111122 
DISL,ioos:station:DISL:DISL:1,2017-01-06T10:00:00Z,30.2513,-88.0778,12.74,1111122 
DISL,ioos:station:DISL:DISL:1,2017-01-06T10:30:00Z,30.2513,-88.0778,12.67,1111122 
DISL,ioos:station:DISL:DISL:1,2017-01-06T11:00:00Z,30.2513,-88.0778,12.6,1111122 
DISL,ioos:station:DISL:DISL:1,2017-01-06T11:30:00Z,30.2513,-88.0778,12.39,1111122 
DISL,ioos:station:DISL:DISL:1,2017-01-06T12:00:00Z,30.2513,-88.0778,11.98,1111122 
DISL,ioos:station:DISL:DISL:1,2017-01-06T12:30:00Z,30.2513,-88.0778,11.85,1111122 
DISL,ioos:station:DISL:DISL:1,2017-01-06T13:00:00Z,30.2513,-88.0778,10.18,1111122 
DISL,ioos:station:DISL:DISL:1,2017-01-06T13:30:00Z,30.2513,-88.0778,9.77,1111122 
DISL,ioos:station:DISL:DISL:1,2017-01-06T14:00:00Z,30.2513,-88.0778,9.5,1111122 
DISL,ioos:station:DISL:DISL:1,2017-01-06T14:30:00Z,30.2513,-88.0778,9.47,1111122 
DISL,ioos:station:DISL:DISL:1,2017-01-06T15:00:00Z,30.2513,-88.0778,9.06,1111122 
DISL,ioos:station:DISL:DISL:1,2017-01-06T15:30:00Z,30.2513,-88.0778,8.86,1111122 
DISL,ioos:station:DISL:DISL:1,2017-01-06T16:00:00Z,30.2513,-88.0778,8.93,1111122 
DISL,ioos:station:DISL:DISL:1,2017-01-06T16:30:00Z,30.2513,-88.0778,8.65,1111122 
DISL,ioos:station:DISL:DISL:1,2017-01-06T17:00:00Z,30.2513,-88.0778,8.41,1111122 
DISL,ioos:station:DISL:DISL:1,2017-01-06T17:30:00Z,30.2513,-88.0778,8.48,1111122 
DISL,ioos:station:DISL:DISL:1,2017-01-06T18:00:00Z,30.2513,-88.0778,7.222,1111122 
DISL,ioos:station:DISL:DISL:1,2017-01-06T18:30:00Z,30.2513,-88.0778,7.225,1111122 
DISL,ioos:station:DISL:DISL:1,2017-01-06T19:00:00Z,30.2513,-88.0778,7.569,1111122 
DISL,ioos:station:DISL:DISL:1,2017-01-06T19:30:00Z,30.2513,-88.0778,6.784,1111122 
DISL,ioos:station:DISL:DISL:1,2017-01-06T20:00:00Z,30.2513,-88.0778,6.958,1111122 
DISL,ioos:station:DISL:DISL:1,2017-01-06T20:30:00Z,30.2513,-88.0778,6.618,1111122 
DISL,ioos:station:DISL:DISL:1,2017-01-06T21:00:00Z,30.2513,-88.0778,6.587,1111122 
DISL,ioos:station:DISL:DISL:1,2017-01-06T21:30:00Z,30.2513,-88.0778,5.384,1111122 
DISL,ioos:station:DISL:DISL:1,2017-01-06T22:00:00Z,30.2513,-88.0778,5.797,1111122 
DISL,ioos:station:DISL:DISL:1,2017-01-06T22:30:00Z,30.2513,-88.0778,6.209,1111122 
DISL,ioos:station:DISL:DISL:1,2017-01-06T23:00:00Z,30.2513,-88.0778,6.278,1111122 
DISL,ioos:station:DISL:DISL:1,2017-01-06T23:30:00Z,30.2513,-88.0778,5.728,1111122 
DISL,ioos:station:DISL:DISL:1,2017-01-07T00:00:00Z,30.2513,-88.0778,5.556,1111122 
DISL,ioos:station:DISL:DISL:1,2017-01-07T00:30:00Z,30.2513,-88.0778,5.969,1111122 
DISL,ioos:station:DISL:DISL:1,2017-01-07T01:00:00Z,30.2513,-88.0778,4.422,1111122 
DISL,ioos:station:DISL:DISL:1,2017-01-07T01:30:00Z,30.2513,-88.0778,4.911,1111122 
DISL,ioos:station:DISL:DISL:1,2017-01-07T02:00:00Z,30.2513,-88.0778,4.778,1111122 
DISL,ioos:station:DISL:DISL:1,2017-01-07T02:30:00Z,30.2513,-88.0778,4.877,1111122 
DISL,ioos:station:DISL:DISL:1,2017-01-07T03:00:00Z,30.2513,-88.0778,4.298,1111122 
DISL,ioos:station:DISL:DISL:1,2017-01-07T03:30:00Z,30.2513,-88.0778,4.23,1111122 
DISL,ioos:station:DISL:DISL:1,2017-01-07T04:00:00Z,30.2513,-88.0778,4.024,1111122 
DISL,ioos:station:DISL:DISL:1,2017-01-07T04:30:00Z,30.2513,-88.0778,4.095,1111122 
DISL,ioos:station:DISL:DISL:1,2017-01-07T05:00:00Z,30.2513,-88.0778,3.683,1111122 
DISL,ioos:station:DISL:DISL:1,2017-01-07T05:30:00Z,30.2513,-88.0778,3.406,1111122 
DISL,ioos:station:DISL:DISL:1,2017-01-07T06:30:00Z,30.2513,-88.0778,2.383,1111122 
DISL,ioos:station:DISL:DISL:1,2017-01-07T07:00:00Z,30.2513,-88.0778,1.906,1111122 
DISL,ioos:station:DISL:DISL:1,2017-01-07T07:30:00Z,30.2513,-88.0778,1.149,1111122 
DISL,ioos:station:DISL:DISL:1,2017-01-07T08:00:00Z,30.2513,-88.0778,2.112,1111122 
DISL,ioos:station:DISL:DISL:1,2017-01-07T08:30:00Z,30.2513,-88.0778,1.222,1111122 
DISL,ioos:station:DISL:DISL:1,2017-01-07T09:00:00Z,30.2513,-88.0778,0.985,1111122 